Regional Weather Roundup
Issued by NWS

Home | Current Version | Previous Version | Text Only | Print | Product List | Glossary On
Versions: 1 2 3 4 5 6 7 8 9 10 11 12 13 14 15 16 17 18 19 20 21 22 23 24 25 26 27 28 29 30 31 32 33 34 35 36 37 38 39 40 41 42 43 44 45 46 47 48 49 50
913
ASUS44 KEWX 251603
RWRTX
SOUTH TEXAS REGIONAL WEATHER ROUNDUP
NATIONAL WEATHER SERVICE AUSTIN/SAN ANTONIO TX
1100 AM CDT TUE APR 25 2017

NOTE: "FAIR" INDICATED FEW OR NO CLOUDS BELOW 12,000 FEET WITH NO
SIGNIFICANT WEATHER AND/OR OBSTRUCTIONS TO VISIBILITY.

* - THESE STATIONS ARE NOT NWS OR FAA STATIONS...AND ARE NOT SUBJECT
    TO NWS AND FAA QUALITY CONTROL.

TXZ171-172-183>190-251700-
TEXAS HILL COUNTRY AND EDWARDS PLATEAU

CITY           SKY/WX    TMP DP  RH WIND       PRES   REMARKS
JUNCTION       CLOUDY    76  60  57 SW12      29.63F
*LLANO         SUNNY     75  63  64 S9        29.66S
BURNET         PTSUNNY   73  62  68 S15G24    29.66S
*HORSESHOE BAY MOSUNNY   76  64  66 S10       29.64F
*KERRVILLE     CLOUDY    66  64  91 S9        29.68F
*FREDERICKSBRG CLOUDY    68  61  78 S17       29.67S
*ROCKSPRINGS   CLOUDY    68  61  77 S12       29.70S
*BOERNE STAGE  CLOUDY    66  63  88 S10G16    29.69S
*CASTROVILLE   CLOUDY    73  64  72 S10       29.68S
HONDO          CLOUDY    70  67  90 S10       29.66S
*UVALDE        CLOUDY    67  64  89 CALM      29.68R
DEL RIO        SUNNY     73  61  65 SE8       29.63S
LAUGHLIN AFB   PTSUNNY   74  63  68 SE9       29.63S
CARRIZO SPRGS  SUNNY     75  64  69 S5        29.63S
*EAGLE PASS    NOT AVBL
$$

TXZ173-191>194-202-209-217>225-228-251700-
CENTRAL AND SOUTH CENTRAL TEXAS

CITY           SKY/WX    TMP DP  RH WIND       PRES   REMARKS
GEORGETOWN     CLOUDY    70  63  78 S15       29.65S
AUSTIN/BERGSTM CLOUDY    73  66  78 S16       29.66R
AUSTIN/MABRY   CLOUDY    72  65  78 VRB5G18   29.67R
*AUSTIN/EXEC   CLOUDY    70  66  88 S13       29.67S
*LAGO VISTA    CLOUDY    72  65  77 S12G18    29.66F
SAN MARCOS     CLOUDY    73  66  78 S14       29.68R
NEW BRAUNFELS  CLOUDY    74  66  76 S15       29.65S
RANDOLPH AFB   CLOUDY    73  68  87 S12       29.67R
PT SAN ANTONIO CLOUDY    73  66  79 S10       29.65S
SAN ANTONIO    CLOUDY    72  65  78 S10       29.67S
STINSON FIELD  CLOUDY    74  66  76 S9        29.65S
*LA GRANGE     CLOUDY    77  70  77 S15       29.65S
*GIDDINGS      CLOUDY    74  66  75 S9G17     29.67S
*GONZALES      CLOUDY    76  71  84 S10       29.66S
$$

TXZ163>164-176>182-195>201-210>213-226-227-235-251700-
SOUTHEAST TEXAS

CITY           SKY/WX    TMP DP  RH WIND       PRES   REMARKS
COLLEGE STN    CLOUDY    74  66  76 S14G23    29.68R
*BRYAN         CLOUDY    73  66  80 S12       29.69R
*CALDWELL      NOT AVBL
*CROCKETT      MOSUNNY   73  64  73 S13G23    29.72R
*BRENHAM       CLOUDY    77  68  72 S16       29.68S
HUNTSVILLE     PTSUNNY   76  64  66 S14G20    29.69R
CONROE         CLOUDY    77  64  64 S17G24    29.70R
HOUSTON BUSH   PTSUNNY   79  65  62 S14G21    29.70S
HOUSTON HOBBY  CLOUDY    78  66  66 S12       29.70R
*HOUSTON SW AP   N/A    N/A N/A N/A MISG        N/A
PEARLAND       CLOUDY    80  65  59 S12G24    29.72R
HOUSTON HOOKS  CLOUDY    77  65  66 S14G23    29.70R
ELLINGTON FLD  PTSUNNY   81  68  65 S18       29.73R
SUGAR LAND     CLOUDY    79  68  69 S13       29.69F
*HOUSTON EXEC  CLOUDY    77  68  73 S18       29.70S
*CLEVELAND MUN CLOUDY    77  66  67 S15G21    29.72R
*WHARTON       PTSUNNY   78  66  66 S20       29.70S
*COLUMBUS      CLOUDY    76  67  73 S15G23    29.69R
*EAGLE LAKE    CLOUDY    80  70  72 S17G29    29.68S
$$

TXZ214>216-236>238-251700-
THE UPPER TEXAS COAST

CITY           SKY/WX    TMP DP  RH WIND       PRES   REMARKS
*ORANGE        CLOUDY    75  65  71 S12G20    29.77S
PORT ARTHUR    CLOUDY    77  63  61 S18G28    29.74R
GALVESTON      MOSUNNY   81  69  67 S20       29.73S
ANGLETON       CLOUDY    80  69  69 S23       29.71S
*BAY CITY      CLOUDY    80  70  72 S16       29.70S
PALACIOS       MOSUNNY   80  70  71 S17G26    29.69S
$$

TXZ229>234-239>247-251700-
TEXAS COASTAL BEND AND RIO GRANDE PLAINS

CITY           SKY/WX    TMP DP  RH WIND       PRES   REMARKS
VICTORIA       CLOUDY    81  69  67 S22G30    29.67S
*BEEVILLE      CLOUDY    82  72  72 S23       29.65S
ROCKPORT       CLOUDY    80  70  71 S17G26    29.66S
*PORT ARANSAS  CLOUDY    79  71  76 S15G23    29.67S
*PORT LAVACA   CLOUDY    79  72  79 S17G23    29.68S
*INGLESIDE     CLOUDY    82  72  71 S21G28    29.66S
CORPUS CHRISTI PTSUNNY   81  70  69 S24G32    29.65S
CORPUS NAS     PTSUNNY   83  73  72 S17G29    29.65S
*ROBSTOWN      MOSUNNY   84  69  60 S24G30    29.66R
ALICE          MOSUNNY   84  68  58 S18G26    29.63S
KINGSVILLE NAS MOSUNNY   84  71  65 S20       29.64S
COTULLA        MOSUNNY   78  67  68 S8        29.64S
*FAITH RANCH   SUNNY     81  64  57 VRB7G14   29.63S
LAREDO         SUNNY     79  67  66 VRB7      29.64S
$$

TXZ248>255-251700-
DEEP SOUTH TEXAS

CITY           SKY/WX    TMP DP  RH WIND       PRES   REMARKS
BROWNSVILLE    MOSUNNY   86  72  62 S22G32    29.68F HX  92
PORT ISABEL    MOSUNNY   86  71  60 S24G33    29.66F HAZE    HX  91
*SOUTH PADRE   NOT AVBL
HARLINGEN      MOSUNNY   85  72  65 S24G35    29.64F HX  91
*HEBBRONVILLE  MOSUNNY   77  67  69 S12       29.66S
MCALLEN        SUNNY     85  70  60 S16G24    29.65S
*WESLACO       MOSUNNY   84  70  62 S21G28    29.64S
FALFURRIAS     MOSUNNY   84  69  60 S17G24    29.63S
EDINBURG       MOSUNNY   86  69  55 S18       29.64F HX  90
*ZAPATA        SUNNY     82  66  57 S7        29.63S
$$

TXZ213>215-236>238-242>244-246-247-251-254-255-251700-
CMAN STATIONS

STATION/POSITION TIME  TEMP    WIND        PRES    WAVE
                       AIR SEA DIR/SP/G            HT/PER
                 (UTC) (F)     (DEG/KT/KT) (MB)    (FT/S)
SABINE PASS      1524   75 76  180/ 16/ 20 1008.5
SEA RIM ST PARK  1500   74     190/ 16/ 19 1007.5
NORTH JETTY/GLS  1524      73  170/ 16/ 21 1005.9
EAGLE POINT      1524   75 73  200/ 24/ 28 1005.7
MORGANS POINT    1524   76 75  170/ 12/ 17 1006.1
MISSION/ARANSAS  1500   76                 1005.0
PORT O`CONNOR    1524   75     160/ 18/ 23 1005.0
PORT ARANSAS     1500   76 76  150/ 21/ 24 1004.5
MALAQUITE BEACH  1524   76 76  150/ 20/ 23 1004.6
BAFFIN BAY       1524   77 75  120/ 17/ 21 1004.2
PORT ISABEL      1524   80 76  160/ 17/ 22 1005.2
$$

GMZ080-GMZ150>470-251700-
OFFSHORE BUOY REPORTS

STATION/POSITION TIME  TEMP    WIND        PRES    WAVE
                       AIR SEA DIR/SP/G            HT/PER
                 (UTC) (F)     (DEG/KT/KT) (MB)    (FT/S)
20 E GALVESTON   1450   74 75  190/ 17/ 21 1006.4    4/ 5
90 E PT ARANSAS  1450   76 75  150/ 17/ 21 1005.8    5/ 6
35 NE PT MANSFLD 1450   76     170/ 16/ 17 1004.5    5/ 6
200 E PT ISABEL  1450   77 79  170/ 16/ 19 1008.2    3/ 5
$$




USA.gov is the U.S. government's official web portal to all federal, state and local government web resources and services.